Home > Weather > Mendoza > Past weeks

Flag for Argentina Past Weather in Mendoza, Mendoza, Argentina — Yesterday and Last 2 Weeks

Now
50 °F

Partly sunny.


Feels Like: 50 °F
Forecast: 36 / 47 °F
Wind: 2 mph from Southwest

Location: Mendoza Aerodrome

Current Time: Jul 26, 2016 at 4:51:04 PM

Latest Report: Jul 26, 2016 at 4:00 PM


Visibility: N/A

Pressure: 30.21 "Hg (27.54 "Hg at 767m altitude)

Humidity: 67%

Dew Point: 39 °F

Location of MendozaLocation

Past Weather in Mendoza — Graph

°F

Mendoza Temperature Yesterday

Maximum temperature yesterday: 57 °F (at 4:00 PM)
Minimum temperature yesterday: 37 °F (at 7:00 AM)
Average temperature yesterday: 46 °F

High & Low Weather Summary for the Past Weeks

 TemperatureHumidityPressure
High72 °F (Jul 23, 2:00 PM)100% (Jul 25, 7:00 AM)30.36 "Hg (Jul 25, 7:00 AM)
Low30 °F (Jul 17, 8:00 AM)16% (Jul 23, 2:00 PM)29.62 "Hg (Jul 13, 3:00 PM)
Average48 °F65%30.05 "Hg
* Reported Jul 11 3:00 PM — Jul 26 3:00 PM, Mendoza, Weather by CustomWeather, © 2016

Note: Actual official high and low records may vary slightly from our data, if they occured in-between our weather recording intervals... More about our weather records

Advertising

Mendoza Weather History for the Previous 24 Hours

Scroll right to see more
 ConditionsComfort  
Time TempWeatherWind HumidityBarometerVisibility
3:00 PM
Tue, Jul 26
48 °FPartly sunny.No wind71%30.24 "HgN/A
2:00 PM46 °FOvercast.3 mph71%30.27 "HgN/A
1:00 PM46 °FOvercast.6 mph71%30.30 "HgN/A
12:00 PM45 °FOvercast.5 mph76%30.33 "HgN/A
11:00 AM45 °FPartly sunny.3 mph76%30.33 "HgN/A
10:00 AM45 °FOvercast.2 mph81%30.33 "HgN/A
9:00 AM45 °FOvercast.3 mph81%30.30 "HgN/A
8:00 AM45 °FOvercast.3 mph81%30.27 "HgN/A
7:00 AM45 °FOvercast.5 mph87%30.24 "HgN/A
6:00 AM45 °FOvercast.3 mph87%30.24 "HgN/A
5:00 AM45 °FOvercast.5 mph87%30.24 "HgN/A
4:00 AM46 °FPassing clouds.7 mph82%30.24 "HgN/A
3:00 AM46 °FPassing clouds.No wind76%30.24 "HgN/A
2:00 AM48 °FPassing clouds.3 mph71%30.27 "HgN/A
1:00 AM48 °FPassing clouds.3 mph71%30.27 "HgN/A
12:00 AM48 °FPassing clouds.5 mph71%30.27 "HgN/A
11:00 PM
Mon, Jul 25
48 °FOvercast.3 mph71%30.24 "HgN/A
10:00 PM48 °FOvercast.5 mph71%30.21 "HgN/A
9:00 PM48 °FPassing clouds.9 mph76%30.21 "HgN/A
8:00 PM48 °FPassing clouds.6 mph76%30.15 "HgN/A
7:00 PM50 °FPassing clouds.8 mph71%30.09 "HgN/A
6:00 PM55 °FPassing clouds.8 mph59%30.07 "HgN/A
5:00 PM57 °FPassing clouds.6 mph51%30.01 "HgN/A
4:00 PM57 °FSunny.6 mph51%30.01 "Hg10 mi
Weather by CustomWeather, © 2016

See weather overviewHow to use our weather pages